KG1JAG Weather Reports


time (UTC)temp
C
wind
direction
speed
KPH
gust
KPH
rain 1hr
cm
rain 24hr
cm
rain mn
cm
humidity
%
barometer
mb
20260507115004 12 56 1.6 1.6 0.00 0.00 0.05 84 1018.3
20260507114504 12 48 1.6 1.6 0.00 0.00 0.05 85 1017.9
20260507114004 12 50 0.0 0.0 0.00 0.00 0.05 87 1017.9
20260507113504 12 54 0.0 1.6 0.00 0.00 0.05 86 1018.3
20260507113005 12 51 0.0 0.0 0.00 0.00 0.05 87 1018.3
20260507112504 12 54 1.6 1.6 0.00 0.00 0.05 88 1018.3
20260507112006 12 54 0.0 0.0 0.00 0.00 0.05 88 1018.3
20260507111506 12 55 1.6 1.6 0.00 0.00 0.05 88 1018.3
20260507111004 12 54 1.6 1.6 0.00 0.00 0.05 88 1017.9
20260507110504 12 53 0.0 0.0 0.00 0.00 0.05 89 1017.9
20260507110005 12 52 0.0 0.0 0.00 0.00 0.05 88 1017.9
20260507105507 12 52 0.0 0.0 0.00 0.00 0.05 89 1017.9
20260507105004 12 49 0.0 0.0 0.00 0.00 0.05 89 1017.9
20260507104504 12 51 0.0 0.0 0.00 0.00 0.05 90 1017.9
20260507104005 12 51 0.0 0.0 0.00 0.00 0.05 88 1017.9
20260507103505 12 47 0.0 0.0 0.00 0.00 0.05 88 1017.6
20260507103006 12 47 0.0 0.0 0.00 0.00 0.05 89 1017.6
20260507102505 12 43 0.0 1.6 0.00 0.00 0.05 89 1017.3
20260507102006 12 54 0.0 0.0 0.00 0.00 0.05 87 1017.3
20260507101504 12 52 0.0 0.0 0.00 0.00 0.05 87 1017.3
20260507101004 12 52 0.0 0.0 0.00 0.00 0.05 89 1017.3
20260507100505 12 54 1.6 1.6 0.00 0.00 0.05 88 1017.3
20260507100005 12 52 0.0 0.0 0.00 0.00 0.05 88 1017.3
20260507095505 12 52 0.0 0.0 0.00 0.00 0.05 87 1017.3
20260507095004 12 51 0.0 0.0 0.00 0.00 0.05 88 1017.3
20260507094505 12 53 1.6 1.6 0.00 0.00 0.05 88 1017.3
20260507094005 11 54 0.0 0.0 0.00 0.00 0.05 89 1017.3
20260507093506 11 49 1.6 1.6 0.00 0.00 0.05 89 1017.3
20260507093004 12 52 0.0 0.0 0.00 0.00 0.05 87 1017.3
20260507092504 12 46 0.0 0.0 0.00 0.00 0.05 89 1017.3
20260507092004 12 46 0.0 0.0 0.00 0.00 0.05 89 1017.3
20260507091504 12 52 0.0 0.0 0.00 0.00 0.05 88 1017.3
20260507091005 12 53 0.0 0.0 0.00 0.00 0.05 88 1017.3
20260507090505 12 56 3.2 3.2 0.00 0.00 0.05 88 1017.3
20260507090005 12 52 0.0 0.0 0.00 0.00 0.05 88 1017.3
20260507085505 12 47 0.0 0.0 0.00 0.00 0.05 88 1017.3
20260507085006 12 65 1.6 1.6 0.00 0.00 0.05 87 1017.3
20260507084505 12 54 0.0 0.0 0.00 0.00 0.05 90 1017.3
20260507084005 12 55 0.0 0.0 0.00 0.00 0.05 88 1017.3
20260507083504 12 51 0.0 0.0 0.00 0.00 0.05 90 1017.3
20260507083005 12 49 0.0 0.0 0.00 0.00 0.05 89 1017.3
20260507082504 12 51 0.0 0.0 0.00 0.00 0.05 90 1016.9
20260507082004 12 48 0.0 0.0 0.00 0.00 0.05 91 1016.9
20260507081504 11 54 1.6 1.6 0.00 0.00 0.05 91 1016.9
20260507081004 11 50 0.0 0.0 0.00 0.00 0.05 90 1016.9
20260507080504 12 54 1.6 1.6 0.00 0.00 0.05 89 1016.9
20260507080006 12 53 0.0 0.0 0.00 0.00 0.05 90 1016.9
20260507075505 11 49 0.0 0.0 0.00 0.00 0.05 90 1016.9
20260507075004 12 44 0.0 0.0 0.00 0.00 0.05 90 1016.9
20260507074505 11 80 1.6 1.6 0.00 0.00 0.05 89 1016.6
20260507074005 12 51 1.6 3.2 0.00 0.00 0.05 89 1016.6
20260507073505 12 45 0.0 1.6 0.00 0.00 0.05 88 1016.9
20260507073004 12 50 1.6 4.8 0.00 0.00 0.05 86 1016.9
20260507072504 12 61 1.6 3.2 0.00 0.00 0.05 86 1016.6
20260507072005 12 60 3.2 4.8 0.00 0.00 0.05 88 1016.6
20260507071505 12 60 1.6 1.6 0.00 0.00 0.05 89 1016.6
20260507071004 12 55 0.0 1.6 0.00 0.00 0.05 88 1016.6
20260507070504 12 69 3.2 4.8 0.00 0.00 0.05 88 1016.6
20260507070008 12 69 3.2 4.8 0.00 0.00 0.05 88 1016.9
20260507065505 13 204 0.0 1.6 0.00 0.00 0.05 89 1016.9
20260507065004 13 49 0.0 0.0 0.00 0.00 0.05 90 1016.9
20260507064505 13 57 1.6 1.6 0.00 0.00 0.05 90 1016.9
20260507064006 13 53 0.0 1.6 0.00 0.00 0.05 90 1016.9
20260507063505 13 54 1.6 1.6 0.00 0.00 0.05 90 1016.6
20260507063005 13 53 3.2 3.2 0.03 0.00 0.05 89 1016.6
20260507062504 13 58 3.2 3.2 0.03 0.00 0.05 89 1016.9
20260507062005 13 54 1.6 1.6 0.05 0.00 0.05 90 1016.9
20260507061504 13 53 1.6 3.2 0.05 0.00 0.05 90 1016.9
20260507061006 13 42 0.0 1.6 0.05 0.00 0.05 89 1016.9
20260507060504 13 52 0.0 1.6 0.05 0.00 0.05 90 1016.9
20260507060005 13 51 0.0 0.0 0.05 0.00 0.05 90 1016.9
20260507055505 13 36 0.0 0.0 0.08 0.00 0.05 90 1016.9
20260507055004 13 51 1.6 1.6 0.08 0.00 0.05 90 1016.9
20260507054504 13 55 1.6 1.6 0.08 0.00 0.05 92 1016.9
20260507054005 13 51 0.0 0.0 0.08 0.00 0.05 93 1016.9
20260507053505 13 53 0.0 0.0 0.08 0.00 0.05 93 1017.3
20260507053005 13 58 1.6 1.6 0.08 0.00 0.05 91 1017.3
20260507052504 13 48 0.0 0.0 0.05 0.00 0.03 93 1016.9
20260507052005 13 56 0.0 0.0 0.05 0.00 0.03 92 1016.9
20260507051504 13 46 0.0 1.6 0.05 0.00 0.00 92 1016.9
20260507051005 13 55 1.6 1.6 0.05 0.00 0.00 92 1016.9
20260507050504 13 52 1.6 1.6 0.05 0.00 0.00 91 1016.9
20260507050005 13 56 1.6 1.6 0.03 0.00 0.00 91 1017.3
20260507045505 14 49 0.0 1.6 0.03 0.00 0.00 89 1017.3
20260507045004 14 56 0.0 0.0 0.00 0.00 0.00 88 1017.3
20260507044504 14 50 3.2 3.2 0.00 0.00 0.00 84 1016.9
20260507044005 15 58 1.6 3.2 0.00 0.00 0.00 80 1016.9
20260507043504 15 54 3.2 3.2 0.00 0.00 0.00 78 1016.9
20260507043004 15 43 1.6 6.4 0.00 0.00 0.00 76 1016.9
20260507042504 15 60 3.2 4.8 0.00 0.00 0.00 78 1016.9
20260507042004 16 49 1.6 1.6 0.00 0.00 0.00 77 1016.9
20260507041504 16 21 0.0 1.6 0.00 0.00 0.00 76 1016.9
20260507041004 16 57 1.6 1.6 0.00 0.00 0.00 76 1016.6
20260507040505 16 59 1.6 3.2 0.00 0.00 0.00 75 1016.6
20260507040004 16 53 3.2 3.2 0.00 0.00 0.51 74 1016.3
20260507035505 16 39 0.0 3.2 0.00 0.00 0.51 73 1016.3
20260507035004 16 50 1.6 1.6 0.00 0.00 0.51 73 1016.3
20260507034504 16 56 3.2 3.2 0.00 0.00 0.51 72 1016.3
20260507034006 16 55 3.2 4.8 0.00 0.00 0.51 72 1016.3
20260507033504 17 55 1.6 1.6 0.00 0.00 0.51 72 1016.3
20260507033004 17 39 1.6 1.6 0.00 0.00 0.51 71 1016.3
20260507032504 17 50 1.6 1.6 0.00 0.00 0.51 71 1016.3
20260507032004 17 52 1.6 3.2 0.00 0.00 0.51 72 1016.3
20260507031505 17 26 3.2 4.8 0.00 0.00 0.51 71 1016.3
20260507031005 17 36 1.6 3.2 0.00 0.00 0.51 70 1016.3
20260507030504 17 54 1.6 3.2 0.00 0.00 0.51 70 1016.3
20260507030004 17 48 1.6 1.6 0.00 0.00 0.51 70 1015.9
20260507025504 17 47 1.6 1.6 0.00 0.00 0.51 71 1015.9
20260507025004 17 91 1.6 4.8 0.00 0.00 0.51 71 1015.9
20260507024505 17 66 1.6 1.6 0.00 0.00 0.51 70 1015.9
20260507024004 17 56 0.0 0.0 0.00 0.00 0.51 71 1015.9
20260507023505 17 25 1.6 1.6 0.00 0.00 0.51 71 1015.2
20260507023005 17 51 3.2 4.8 0.00 0.00 0.51 74 1015.2
20260507022504 18 58 1.6 1.6 0.00 0.00 0.51 77 1015.2
20260507022004 18 52 1.6 1.6 0.00 0.00 0.51 78 1015.2
20260507021504 18 59 1.6 3.2 0.00 0.00 0.51 78 1015.2
20260507021005 18 50 1.6 3.2 0.00 0.00 0.51 80 1015.2
20260507020504 18 57 1.6 3.2 0.00 0.00 0.51 80 1015.2
20260507020005 18 50 1.6 1.6 0.00 0.00 0.51 80 1015.2
20260507015505 18 58 3.2 3.2 0.00 0.00 0.51 79 1015.2
20260507015004 18 56 3.2 3.2 0.00 0.00 0.51 78 1015.2
20260507014504 19 54 0.0 0.0 0.00 0.00 0.51 78 1015.2
20260507014004 19 78 3.2 4.8 0.00 0.00 0.51 78 1015.2
20260507013504 19 66 4.8 6.4 0.00 0.00 0.51 77 1015.2
20260507013004 19 50 1.6 1.6 0.00 0.00 0.51 77 1015.2
20260507012505 19 57 1.6 1.6 0.00 0.00 0.51 76 1015.2
20260507012004 19 64 1.6 1.6 0.00 0.00 0.51 76 1015.2
20260507011504 20 46 1.6 1.6 0.00 0.00 0.51 76 1015.2
20260507011005 20 64 1.6 3.2 0.00 0.00 0.51 76 1015.2
20260507010506 20 50 1.6 3.2 0.00 0.00 0.51 77 1015.2
20260507010005 20 61 3.2 3.2 0.00 0.00 0.51 79 1014.9
20260507005504 20 58 1.6 1.6 0.00 0.00 0.51 78 1014.9
20260507005004 20 51 0.0 1.6 0.00 0.00 0.51 78 1014.9
20260507004505 20 38 1.6 1.6 0.00 0.00 0.51 78 1014.9
20260507004006 20 42 0.0 0.0 0.00 0.00 0.51 77 1014.9
20260507003504 20 55 0.0 0.0 0.00 0.00 0.51 78 1014.9
20260507003004 20 50 0.0 0.0 0.00 0.00 0.51 78 1014.9
20260507002504 20 51 1.6 1.6 0.00 0.00 0.51 78 1014.6
20260507002005 20 51 0.0 0.0 0.00 0.00 0.51 78 1014.6
20260507001505 20 52 0.0 0.0 0.00 0.00 0.51 78 1014.6
20260507001004 20 36 1.6 1.6 0.00 0.00 0.51 78 1014.6
20260507000505 20 57 0.0 0.0 0.00 0.00 0.51 77 1014.6
20260507000006 20 52 0.0 0.0 0.00 0.00 0.51 77 1014.6
20260506235017 20 49 0.0 0.0 0.00 0.00 0.51 76 1014.6
20260506234504 20 240 6.4 6.4 0.00 0.00 0.51 76 1014.2
20260506234005 20 25 1.6 1.6 0.00 0.00 0.51 75 1014.2
20260506233504 20 58 0.0 1.6 0.00 0.00 0.51 75 1014.2
20260506233005 20 63 0.0 0.0 0.00 0.00 0.51 74 1014.2
20260506232505 20 189 3.2 3.2 0.00 0.00 0.51 74 1014.2
20260506232004 21 18 1.6 1.6 0.00 0.00 0.51 74 1014.2
20260506231505 21 275 3.2 3.2 0.00 0.00 0.51 73 1014.2
20260506231004 21 65 1.6 1.6 0.00 0.00 0.51 72 1014.2
20260506230505 21 50 1.6 1.6 0.00 0.00 0.51 72 1014.2
20260506230004 21 51 0.0 0.0 0.00 0.00 0.51 71 1014.2
20260506225505 21 53 1.6 1.6 0.00 0.00 0.51 71 1014.2
20260506225004 21 33 1.6 3.2 0.00 0.00 0.51 70 1014.2
20260506224505 21 53 4.8 6.4 0.00 0.00 0.51 69 1013.9
20260506224004 22 71 1.6 1.6 0.00 0.00 0.51 67 1013.9
20260506223505 21 5 0.0 0.0 0.00 0.00 0.51 69 1014.2
20260506223004 21 54 0.0 0.0 0.00 0.00 0.51 71 1014.2
20260506222511 21 49 0.0 0.0 0.00 0.00 0.51 72 1014.2
20260506222004 21 57 0.0 0.0 0.00 0.00 0.51 72 1014.2
20260506221505 21 59 3.2 6.4 0.00 0.00 0.51 72 1014.2
20260506221005 21 82 1.6 1.6 0.00 0.00 0.51 71 1014.2
20260506220504 21 271 6.4 8.0 0.00 0.00 0.51 71 1014.2
20260506220004 21 46 0.0 1.6 0.00 0.00 0.51 71 1014.2
20260506215504 21 53 1.6 1.6 0.00 0.00 0.51 71 1014.2
20260506215006 21 66 0.0 1.6 0.00 0.00 0.51 70 1014.2
20260506214505 21 55 0.0 3.2 0.00 0.00 0.51 70 1013.9
20260506214004 21 114 1.6 6.4 0.00 0.00 0.51 69 1013.9
20260506213505 21 55 1.6 1.6 0.00 0.00 0.51 68 1013.9
20260506213005 22 86 3.2 3.2 0.00 0.00 0.51 67 1013.9
20260506212504 22 47 0.0 0.0 0.00 0.00 0.51 68 1013.9
20260506212005 22 70 3.2 4.8 0.00 0.00 0.51 68 1013.9
20260506211504 22 84 0.0 0.0 0.00 0.00 0.51 67 1013.9
20260506211008 21 80 1.6 3.2 0.00 0.00 0.51 67 1013.9
20260506210505 21 80 3.2 4.8 0.00 0.00 0.51 68 1013.9
20260506210005 21 40 3.2 3.2 0.00 0.00 0.51 68 1013.9
20260506205505 21 70 1.6 3.2 0.00 0.00 0.51 68 1013.9
20260506205004 21 260 1.6 1.6 0.00 0.00 0.51 68 1013.9
20260506204504 21 340 4.8 4.8 0.00 0.00 0.51 69 1013.9
20260506204004 21 63 3.2 4.8 0.00 0.00 0.51 69 1013.9
20260506203504 21 100 3.2 3.2 0.00 0.00 0.51 68 1013.9
20260506203004 21 118 1.6 3.2 0.00 0.00 0.51 68 1013.9
20260506202505 21 17 3.2 8.0 0.00 0.00 0.51 67 1013.9
20260506202005 21 74 3.2 3.2 0.00 0.00 0.51 67 1013.9
20260506201508 21 56 1.6 3.2 0.00 0.00 0.51 67 1013.9
20260506201004 22 99 3.2 6.4 0.00 0.00 0.51 66 1013.9
20260506200505 22 56 1.6 1.6 0.00 0.00 0.51 65 1013.9
20260506200004 22 85 1.6 1.6 0.00 0.00 0.51 64 1013.9
20260506195507 22 42 3.2 3.2 0.00 0.00 0.51 63 1013.9
20260506195011 23 64 3.2 3.2 0.00 0.00 0.51 62 1013.9
20260506194506 23 79 1.6 8.0 0.00 0.00 0.51 61 1013.9
20260506194005 23 323 4.8 6.4 0.00 0.00 0.51 62 1013.9
20260506193505 23 252 3.2 3.2 0.00 0.00 0.51 62 1013.9
20260506193004 23 28 3.2 3.2 0.00 0.00 0.51 62 1013.9
20260506192505 23 353 3.2 4.8 0.00 0.00 0.51 63 1013.9
20260506192004 22 53 3.2 4.8 0.00 0.00 0.51 63 1013.9
20260506191507 22 258 1.6 1.6 0.00 0.00 0.51 64 1013.9
20260506191004 22 2 4.8 6.4 0.00 0.00 0.51 65 1013.9
20260506190505 21 78 4.8 8.0 0.00 0.00 0.51 67 1013.9
20260506190005 21 90 1.6 3.2 0.00 0.00 0.51 68 1014.2
20260506185504 21 54 3.2 6.4 0.00 0.00 0.51 69 1014.2
20260506185004 20 194 3.2 4.8 0.00 0.00 0.51 71 1014.2
20260506184506 20 336 1.6 4.8 0.00 0.00 0.51 72 1014.2
20260506184005 20 262 8.0 8.0 0.00 0.00 0.51 72 1014.2
20260506183505 20 67 1.6 6.4 0.00 0.00 0.51 74 1014.2
20260506183005 19 73 1.6 3.2 0.00 0.00 0.51 76 1014.2
20260506182505 19 70 1.6 1.6 0.00 0.00 0.51 76 1014.2
20260506182004 19 61 1.6 4.8 0.00 0.00 0.51 77 1014.2
20260506181504 19 95 4.8 4.8 0.00 0.00 0.51 77 1014.2
20260506181005 19 83 4.8 6.4 0.00 0.00 0.51 77 1014.6
20260506180505 19 65 3.2 3.2 0.00 0.00 0.51 77 1014.6
20260506180006 18 82 4.8 6.4 0.00 0.00 0.51 77 1014.6
20260506175505 18 79 4.8 6.4 0.00 0.00 0.51 77 1014.6
20260506175005 18 18 1.6 3.2 0.00 0.00 0.51 78 1014.6
20260506174505 18 244 4.8 4.8 0.00 0.00 0.51 79 1014.6
20260506174005 18 166 3.2 6.4 0.00 0.00 0.51 79 1014.6
20260506173505 18 259 8.0 8.0 0.00 0.00 0.51 78 1014.6
20260506173005 18 77 3.2 3.2 0.00 0.00 0.51 79 1014.6
20260506172505 18 86 3.2 9.7 0.00 0.00 0.51 81 1014.6
20260506172004 18 343 3.2 9.7 0.00 0.00 0.51 81 1014.6
20260506171506 18 6 3.2 4.8 0.00 0.00 0.51 82 1014.6
20260506171004 18 55 4.8 8.0 0.00 0.00 0.51 82 1014.6
20260506170506 18 50 3.2 6.4 0.00 0.00 0.51 82 1014.6
20260506170006 18 90 3.2 3.2 0.00 0.00 0.51 84 1014.6
20260506165505 17 348 3.2 8.0 0.00 0.00 0.51 84 1014.6
20260506165005 17 55 3.2 4.8 0.00 0.00 0.51 84 1014.6
20260506164506 17 41 3.2 8.0 0.00 0.00 0.51 85 1014.6
20260506164005 17 60 3.2 3.2 0.00 0.00 0.51 86 1014.6
20260506163505 17 120 8.0 11.3 0.00 0.00 0.51 86 1014.6
20260506163005 17 266 4.8 8.0 0.00 0.00 0.51 87 1014.6
20260506162506 17 0 3.2 3.2 0.00 0.00 0.51 88 1014.6
20260506162004 17 253 3.2 4.8 0.00 0.00 0.51 88 1014.9
20260506161505 16 335 4.8 4.8 0.00 0.00 0.51 88 1014.9
20260506161006 16 54 3.2 9.7 0.00 0.00 0.51 88 1014.9
20260506160505 16 50 1.6 1.6 0.03 0.00 0.51 90 1014.9
20260506160005 16 59 1.6 8.0 0.03 0.00 0.51 89 1014.9
20260506155504 16 243 9.7 12.9 0.03 0.00 0.51 89 1014.9
20260506155005 16 247 4.8 12.9 0.03 0.00 0.51 90 1014.9
20260506154505 16 108 6.4 6.4 0.03 0.00 0.51 91 1014.9
20260506154005 16 69 6.4 14.5 0.05 0.00 0.51 91 1014.9
20260506153505 16 256 3.2 11.3 0.05 0.00 0.51 90 1014.9
20260506153005 16 80 1.6 4.8 0.08 0.00 0.51 91 1014.9
20260506152505 16 74 6.4 6.4 0.10 0.00 0.51 91 1014.9
20260506152005 16 347 3.2 3.2 0.13 0.00 0.51 91 1015.2
20260506151509 16 264 3.2 6.4 0.15 0.00 0.51 91 1015.2
20260506151005 16 275 1.6 4.8 0.20 0.00 0.51 91 1015.9
20260506150505 16 60 3.2 14.5 0.20 0.00 0.51 90 1015.9
20260506150005 16 62 1.6 9.7 0.23 0.00 0.48 91 1015.9
20260506145505 16 26 4.8 9.7 0.25 0.00 0.48 92 1015.9
20260506145005 16 301 6.4 12.9 0.28 0.00 0.48 91 1015.9
20260506144504 16 35 3.2 6.4 0.28 0.00 0.48 92 1015.9
20260506144004 16 231 3.2 3.2 0.30 0.00 0.46 92 1015.9
20260506143504 16 118 1.6 3.2 0.30 0.00 0.46 92 1015.9
20260506143005 16 56 6.4 16.1 0.28 0.00 0.46 91 1015.9
20260506142504 16 0 4.8 4.8 0.28 0.00 0.38 92 1015.9
20260506142005 16 282 3.2 8.0 0.25 0.00 0.38 92 1015.9
20260506141505 16 12 4.8 6.4 0.25 0.00 0.38 91 1015.9
20260506141005 16 136 3.2 4.8 0.23 0.00 0.33 91 1015.9
20260506140505 16 57 1.6 4.8 0.20 0.00 0.28 91 1015.9
20260506140005 16 99 4.8 12.9 0.18 0.00 0.25 90 1015.9
20260506135505 16 183 3.2 3.2 0.15 0.00 0.23 90 1015.9
20260506135006 16 23 3.2 3.2 0.15 0.00 0.18 89 1015.9
20260506134507 16 254 1.6 1.6 0.15 0.00 0.18 89 1016.3
20260506134005 16 83 1.6 1.6 0.15 0.00 0.18 89 1016.3
20260506133506 16 64 1.6 1.6 0.15 0.00 0.13 89 1016.6
20260506133005 16 53 1.6 1.6 0.15 0.00 0.13 89 1016.6
20260506132506 16 61 1.6 1.6 0.13 0.00 0.13 89 1016.3
20260506132005 16 302 4.8 4.8 0.13 0.00 0.13 88 1016.3
20260506131505 16 24 1.6 1.6 0.10 0.00 0.13 88 1016.3
20260506131005 16 0 1.6 1.6 0.08 0.00 0.05 87 1015.9
20260506130505 16 43 1.6 1.6 0.08 0.00 0.05 86 1015.9
20260506130005 16 68 1.6 1.6 0.08 0.00 0.03 86 1015.9
20260506125505 16 68 1.6 3.2 0.08 0.00 0.03 84 1015.9
20260506125005 16 67 1.6 1.6 0.05 0.00 0.03 84 1015.9
20260506124505 17 50 3.2 3.2 0.03 0.00 0.00 83 1015.9
20260506124005 17 274 1.6 1.6 0.03 0.00 0.00 81 1015.9
20260506123504 17 352 1.6 1.6 0.03 0.00 0.00 80 1015.9
20260506123004 17 269 3.2 9.7 0.00 0.00 0.00 78 1015.9
20260506122505 17 74 3.2 3.2 0.00 0.00 0.00 77 1016.3
20260506122004 17 61 1.6 3.2 0.00 0.00 0.00 76 1016.3
20260506121507 17 28 3.2 4.8 0.00 0.00 0.00 74 1016.3
20260506121004 17 44 1.6 1.6 0.00 0.00 0.00 74 1016.3
20260506120505 17 308 4.8 4.8 0.00 0.00 0.00 73 1016.3
20260506120005 18 69 0.0 1.6 0.00 0.00 0.00 72 1016.3
20260506115504 18 34 3.2 14.5 0.00 0.00 0.00 71 1016.3